Find Starlink 11116

NORAD ID: 60045 Int'l Des: 2024-112 Owner: SPXS Country: US Constellation: starlink operational
別名: STARLINK-11116 [DTC] celestrak
LEOCIRCULAR

現在のビュー

3D地球を読み込み中...

About Starlink 11116

Starlink 11116 (NORAD 60045) is a starlink constellation satellite (v2 mini d2c) launched Jun 8, 2024 by SPXS of US. It operates in LEO, CIRCULAR orbit with a mass of 960.00 kg.

次回通過

Passes for default location (London). Set your location on the main map for personalized predictions.

高度履歴

Loading altitude history...

軌道要素

1 60045U 24112H 26235.51429949 .00002283 00000-0 23699-4 0 9994
2 60045 53.1593 163.8150 0000873 91.4948 268.6170 15.69702909127187
Epoch: Aug 23, 2026 • Age: 20 hours

現在のステータス

高度 372.4 km
遠地点 / 近地点 N/A
速度 7.69 km/s
衛星直下点 -37.69°S, 32.05°E
打ち上げ日 Jun 8, 2024
運用期間 2.2 years
タイプ internet

技術仕様

分類 Payload
質量 960.00 kg
乾燥質量 910.00 kg
総質量 960.00 kg
長さ 0.30 m
直径 4.10 m
スパン 29.00 m
形状 Box + pan
製造者 SPXS
バスタイプ Starlink V2MD
フェーズステータス In Orbit
所有者/国 SPXS/US

Most Searched